Flag for Morocco Weather past 2 weeks in Rabat, Morocco

Now
73 °F

Passing clouds.


Feels Like: 73 °F
Forecast: 69 / 79 °F
Wind: 8 mph from West

Location: Rabat-Sale

Current Time: Jul 30, 2015 at 12:01:37 AM

Latest Report: Jul 29, 2015 at 10:30 PM


Visibility: 4 mi

Pressure: 29.98 "Hg

Humidity: 83%

Dew point: 68 °F

Location of RabatLocation

Historic Weather in Rabat — Graph

°F

Rabat temperature yesterday

Maximum temperature yesterday: 79 °F (at 2:00 PM)
Minimum temperature yesterday: 68 °F (at 6:30 AM)
Average temperature yesterday: 74 °F

Past Weeks' High & Low Weather Summary

 TemperatureHumidityPressure
High95 °F (Jul 21, 2:30 PM)100% (Jul 28, 12:00 AM)30.07 "Hg (Jul 28, 12:00 AM)
Low59 °F (Jul 26, 6:00 AM)30% (Jul 21, 2:30 PM)29.83 "Hg (Jul 15, 4:30 PM)
Average75 °F74%29.97 "Hg
* Reported Jul 14 9:00 PM — Jul 29 10:30 PM, Rabat, Weather by CustomWeather, © 2015

Note: Actual official high and low records may vary slightly from our data, if they occured in-between our weather recording intervals... More about our weather records

Advertising

Rabat weather history for previous 24 hours

 ConditionsComfort  
Time TempWeatherWind HumidityBarometerVisibility
10:30 PM
Wed, Jul 29
73 °FPassing clouds.8 mph83%29.98 "Hg4 mi
10:00 PM73 °FPassing clouds.9 mph83%29.98 "Hg4 mi
9:30 PM73 °FPassing clouds.7 mph83%29.98 "Hg4 mi
9:00 PM73 °FPassing clouds.6 mph83%29.95 "Hg4 mi
8:30 PM75 °FPassing clouds.7 mph78%29.95 "Hg4 mi
8:00 PM75 °FScattered clouds.6 mph78%29.95 "Hg4 mi
7:30 PM77 °FScattered clouds.8 mph74%29.92 "Hg4 mi
7:00 PM77 °FScattered clouds.8 mph74%29.92 "Hg4 mi
6:30 PM77 °FScattered clouds.9 mph74%29.92 "Hg4 mi
6:00 PM77 °FScattered clouds.10 mph74%29.92 "Hg4 mi
5:30 PM79 °FScattered clouds.9 mph70%29.89 "Hg4 mi
5:00 PM79 °FScattered clouds.9 mph65%29.89 "Hg4 mi
4:30 PM79 °FScattered clouds.9 mph65%29.89 "Hg4 mi
4:00 PM79 °FScattered clouds.12 mph65%29.92 "Hg4 mi
3:30 PM79 °FScattered clouds.9 mph61%29.92 "Hg4 mi
3:00 PM79 °FScattered clouds.10 mph65%29.92 "Hg4 mi
2:30 PM79 °FScattered clouds.12 mph65%29.92 "Hg4 mi
2:00 PM79 °FPassing clouds.10 mph65%29.95 "Hg4 mi
1:30 PM77 °FPassing clouds.10 mph69%29.95 "Hg4 mi
12:30 PM77 °FScattered clouds.9 mph69%29.95 "Hg4 mi
12:00 PM77 °FScattered clouds.10 mph69%29.95 "Hg4 mi
11:30 AM75 °FScattered clouds.10 mph69%29.95 "Hg3 mi
11:00 AM77 °FScattered clouds.10 mph69%29.95 "Hg3 mi
10:30 AM75 °FScattered clouds.10 mph69%29.95 "Hg3 mi
10:00 AM75 °FScattered clouds.9 mph69%29.95 "HgN/A
9:30 AM73 °FScattered clouds.9 mph78%29.95 "HgN/A
9:00 AM72 °FScattered clouds.12 mph83%29.95 "HgN/A
8:30 AM72 °FScattered clouds.9 mph83%29.95 "HgN/A
8:00 AM72 °FScattered clouds.8 mph83%29.95 "HgN/A
7:30 AM70 °FScattered clouds.6 mph88%29.95 "HgN/A
7:00 AM68 °FScattered clouds.3 mph88%29.95 "Hg3 mi
6:30 AM68 °FMild.3 mph88%29.95 "HgN/A
6:00 AM70 °FClear.5 mph83%29.92 "HgN/A
5:00 AM72 °FClear.6 mph83%29.92 "HgN/A
4:00 AM72 °FClear.5 mph88%29.92 "HgN/A
3:30 AM70 °FClear.3 mph94%29.92 "HgN/A
3:00 AM72 °FClear.7 mph88%29.92 "HgN/A
2:30 AM72 °FClear.7 mph88%29.92 "HgN/A
2:00 AM72 °FClear.7 mph88%29.95 "HgN/A
1:30 AM72 °FClear.5 mph88%29.95 "HgN/A
1:00 AM73 °FClear.7 mph83%29.95 "HgN/A
12:30 AM73 °FMild.8 mph83%29.95 "HgN/A
12:00 AM73 °FMild.7 mph89%29.95 "HgN/A
Weather by CustomWeather, © 2015

See weather overviewHow to use our weather pages